Вернуться в каталог

DMSP 5D-2 F13 DEB

АктивенSSO
NORAD 40678·DEBRIS·🇺🇸 United States

Запущен Mar 24, 1995 с Vandenberg Space Force Base

Loading…

Ближайшие Пролёты (ближайшие 24 часа)

TLE

СвежийSource: Space-Track

Эпоха: Sep 13, 2026, 14:33 UTC

1 40678U 95015FS  26256.60630419  .00005225  00000-0  11620-2 0  9991
2 40678  98.5811 313.7150 0012783 243.5961 116.3925 14.57371978592577

Отслеживайте DMSP 5D-2 F13 DEB в реальном времени с AllMySat

Download on the App Store